Time,TemperatureF,DewpointF,PressureIn,WindDirection,WindDirectionDegrees,WindSpeedMPH,WindSpeedGustMPH,Humidity,HourlyPrecipIn,Conditions,Clouds,dailyrainin,SoftwareType,DateUTC
2013-01-30 00:04:00,71.0,67.0,30.14,SE,131,2.0,4.0,86,0.00,,,0.10,,2013-01-30 05:04:00,
2013-01-30 00:12:00,71.0,67.0,30.14,SE,131,2.0,4.0,86,0.00,,,0.10,,2013-01-30 05:12:00,
2013-01-30 00:22:00,72.0,68.0,30.13,ESE,103,2.0,8.0,86,0.00,,,0.10,,2013-01-30 05:22:00,
2013-01-30 00:32:00,72.0,68.0,30.12,SE,129,2.0,6.0,87,0.00,,,0.10,,2013-01-30 05:32:00,
2013-01-30 00:43:00,72.0,68.0,30.12,SE,129,2.0,6.0,87,0.00,,,0.10,,2013-01-30 05:43:00,
2013-01-30 00:52:00,72.0,67.0,30.11,ESE,113,3.0,8.0,85,0.00,,,0.10,,2013-01-30 05:52:00,
2013-01-30 01:02:00,72.0,66.0,30.11,East,98,4.0,8.0,82,0.00,,,0.10,,2013-01-30 06:02:00,
2013-01-30 01:12:00,72.0,66.0,30.11,East,98,4.0,8.0,82,0.00,,,0.10,,2013-01-30 06:12:00,
2013-01-30 01:21:00,72.0,66.0,30.11,ESE,123,3.0,9.0,82,0.00,,,0.10,,2013-01-30 06:21:00,
2013-01-30 01:32:00,72.0,66.0,30.11,SSE,164,2.0,7.0,82,0.00,,,0.10,,2013-01-30 06:32:00,
2013-01-30 01:42:00,72.0,66.0,30.11,SSE,164,2.0,7.0,82,0.00,,,0.10,,2013-01-30 06:42:00,
2013-01-30 01:52:00,72.0,67.0,30.12,ESE,120,2.0,6.0,84,0.00,,,0.10,,2013-01-30 06:52:00,
2013-01-30 02:02:00,72.0,67.0,30.12,SE,136,2.0,9.0,85,0.00,,,0.10,,2013-01-30 07:02:00,
2013-01-30 02:11:00,72.0,67.0,30.12,SE,136,2.0,9.0,85,0.00,,,0.10,,2013-01-30 07:11:00,
2013-01-30 02:22:00,71.0,66.0,30.11,SE,134,2.0,7.0,85,0.00,,,0.10,,2013-01-30 07:22:00,
2013-01-30 02:32:00,71.0,66.0,30.11,ESE,120,3.0,7.0,85,0.00,,,0.10,,2013-01-30 07:32:00,
2013-01-30 02:42:00,71.0,66.0,30.11,ESE,120,3.0,7.0,85,0.00,,,0.10,,2013-01-30 07:42:00,
2013-01-30 02:52:00,71.0,66.0,30.11,SE,130,2.0,7.0,84,0.00,,,0.10,,2013-01-30 07:52:00,
2013-01-30 03:02:00,71.0,66.0,30.11,SE,138,2.0,6.0,84,0.00,,,0.10,,2013-01-30 08:02:00,
2013-01-30 03:11:00,71.0,66.0,30.11,SE,138,2.0,6.0,84,0.00,,,0.10,,2013-01-30 08:11:00,
2013-01-30 03:22:00,71.0,66.0,30.11,SSE,148,2.0,4.0,84,0.00,,,0.10,,2013-01-30 08:22:00,
2013-01-30 03:32:00,70.0,65.0,30.11,SE,140,2.0,5.0,85,0.00,,,0.10,,2013-01-30 08:32:00,
2013-01-30 03:42:00,70.0,65.0,30.11,SE,140,2.0,5.0,85,0.00,,,0.10,,2013-01-30 08:42:00,
2013-01-30 03:52:00,70.0,65.0,30.11,ESE,123,0.0,5.0,85,0.00,,,0.10,,2013-01-30 08:52:00,
2013-01-30 04:02:00,70.0,66.0,30.10,SE,136,1.0,6.0,86,0.00,,,0.10,,2013-01-30 09:02:00,
2013-01-30 04:11:00,70.0,66.0,30.10,SE,136,1.0,6.0,86,0.00,,,0.10,,2013-01-30 09:11:00,
2013-01-30 04:22:00,70.0,66.0,30.10,SE,131,2.0,5.0,87,0.00,,,0.10,,2013-01-30 09:22:00,
2013-01-30 04:32:00,70.0,66.0,30.09,ESE,123,1.0,4.0,87,0.00,,,0.10,,2013-01-30 09:32:00,
2013-01-30 04:42:00,70.0,66.0,30.09,ESE,123,1.0,4.0,87,0.00,,,0.10,,2013-01-30 09:42:00,
2013-01-30 04:51:00,70.0,66.0,30.09,SE,144,2.0,5.0,86,0.00,,,0.10,,2013-01-30 09:51:00,
2013-01-30 05:02:00,70.0,66.0,30.08,SE,146,2.0,6.0,87,0.00,,,0.10,,2013-01-30 10:02:00,
2013-01-30 05:11:00,70.0,66.0,30.08,SE,146,2.0,6.0,87,0.00,,,0.10,,2013-01-30 10:11:00,
2013-01-30 05:21:00,70.0,66.0,30.08,SE,146,2.0,7.0,86,0.00,,,0.10,,2013-01-30 10:21:00,
2013-01-30 05:32:00,70.0,66.0,30.08,SSE,153,4.0,10.0,86,0.00,,,0.10,,2013-01-30 10:32:00,
2013-01-30 05:42:00,70.0,66.0,30.08,SSE,153,4.0,10.0,86,0.00,,,0.10,,2013-01-30 10:42:00,
2013-01-30 05:52:00,70.0,66.0,30.08,SSE,158,2.0,7.0,86,0.00,,,0.10,,2013-01-30 10:52:00,
2013-01-30 06:02:00,70.0,65.0,30.09,SSE,158,2.0,4.0,85,0.00,,,0.10,,2013-01-30 11:02:00,
2013-01-30 06:11:00,70.0,65.0,30.09,SSE,158,2.0,4.0,85,0.00,,,0.10,,2013-01-30 11:11:00,
2013-01-30 06:22:00,70.0,66.0,30.09,SE,145,1.0,4.0,86,0.00,,,0.10,,2013-01-30 11:22:00,
2013-01-30 06:33:00,70.0,66.0,30.10,SE,134,1.0,4.0,86,0.00,,,0.10,,2013-01-30 11:33:00,
2013-01-30 06:42:00,70.0,66.0,30.10,SE,134,1.0,4.0,86,0.00,,,0.10,,2013-01-30 11:42:00,
2013-01-30 06:52:00,70.0,66.0,30.10,SE,134,1.0,4.0,86,0.00,,,0.10,,2013-01-30 11:52:00,
2013-01-30 07:02:00,69.0,65.0,30.11,SE,133,0.0,2.0,88,0.00,,,0.10,,2013-01-30 12:02:00,
2013-01-30 07:12:00,69.0,65.0,30.11,SE,133,0.0,2.0,88,0.00,,,0.10,,2013-01-30 12:12:00,
2013-01-30 07:22:00,69.0,65.0,30.11,SE,133,0.0,2.0,88,0.00,,,0.10,,2013-01-30 12:22:00,
2013-01-30 07:33:00,68.0,65.0,30.10,SE,132,0.0,3.0,90,0.00,,,0.02,,2013-01-30 12:33:00,
2013-01-30 07:43:00,68.0,65.0,30.10,SE,132,0.0,3.0,90,0.00,,,0.02,,2013-01-30 12:43:00,
2013-01-30 08:03:00,70.0,66.0,30.10,SE,134,1.0,5.0,88,0.00,,,0.02,,2013-01-30 13:03:00,
2013-01-30 08:12:00,70.0,66.0,30.10,SE,134,1.0,5.0,88,0.00,,,0.02,,2013-01-30 13:12:00,
2013-01-30 08:23:00,72.0,67.0,30.10,South,183,4.0,10.0,83,0.00,,,0.02,,2013-01-30 13:23:00,
2013-01-30 08:33:00,73.0,67.0,30.10,SSE,150,2.0,8.0,81,0.00,,,0.02,,2013-01-30 13:33:00,
2013-01-30 08:43:00,73.0,67.0,30.10,SSE,150,2.0,8.0,81,0.00,,,0.02,,2013-01-30 13:43:00,
2013-01-30 08:52:00,74.0,67.0,30.10,SSE,152,4.0,11.0,79,0.00,,,0.02,,2013-01-30 13:52:00,
2013-01-30 09:03:00,75.0,67.0,30.11,SSE,165,5.0,13.0,76,0.00,,,0.02,,2013-01-30 14:03:00,
2013-01-30 09:12:00,75.0,67.0,30.11,SSE,165,5.0,13.0,76,0.00,,,0.02,,2013-01-30 14:12:00,
2013-01-30 09:23:00,75.0,67.0,30.11,SE,137,4.0,13.0,77,0.00,,,0.02,,2013-01-30 14:23:00,
2013-01-30 09:33:00,76.0,67.0,30.11,South,170,6.0,12.0,74,0.00,,,0.02,,2013-01-30 14:33:00,
2013-01-30 09:42:00,76.0,67.0,30.11,South,170,6.0,12.0,74,0.00,,,0.02,,2013-01-30 14:42:00,
2013-01-30 09:52:00,76.0,67.0,30.11,SE,146,7.0,13.0,73,0.00,,,0.02,,2013-01-30 14:52:00,
2013-01-30 10:03:00,76.0,67.0,30.10,ESE,119,5.0,13.0,73,0.00,,,0.02,,2013-01-30 15:03:00,
2013-01-30 10:12:00,76.0,67.0,30.10,ESE,119,5.0,13.0,73,0.00,,,0.02,,2013-01-30 15:12:00,
2013-01-30 10:23:00,76.0,67.0,30.09,South,174,7.0,14.0,73,0.00,,,0.02,,2013-01-30 15:23:00,
2013-01-30 10:33:00,76.0,67.0,30.09,SSE,167,8.0,15.0,73,0.00,,,0.02,,2013-01-30 15:33:00,
2013-01-30 10:43:00,76.0,67.0,30.09,SSE,167,8.0,15.0,73,0.00,,,0.02,,2013-01-30 15:43:00,
2013-01-30 10:53:00,76.0,67.0,30.09,SE,142,7.0,20.0,75,0.00,,,0.02,,2013-01-30 15:53:00,
2013-01-30 11:03:00,77.0,67.0,30.08,ESE,114,8.0,22.0,72,0.00,,,0.02,,2013-01-30 16:03:00,
2013-01-30 11:12:00,77.0,67.0,30.08,ESE,114,8.0,22.0,72,0.00,,,0.02,,2013-01-30 16:12:00,
2013-01-30 11:23:00,77.0,67.0,30.08,SSE,165,6.0,17.0,71,0.00,,,0.00,,2013-01-30 16:23:00,
2013-01-30 11:32:00,77.0,67.0,30.07,South,184,7.0,13.0,71,0.00,,,0.00,,2013-01-30 16:32:00,
2013-01-30 11:42:00,77.0,67.0,30.07,South,184,7.0,13.0,71,0.00,,,0.00,,2013-01-30 16:42:00,
2013-01-30 11:52:00,77.0,67.0,30.07,South,184,7.0,13.0,71,0.00,,,0.00,,2013-01-30 16:52:00,
2013-01-30 12:02:00,78.0,67.0,30.06,SSE,153,10.0,19.0,70,0.00,,,0.00,,2013-01-30 17:02:00,
2013-01-30 12:13:00,78.0,67.0,30.06,SSE,153,10.0,19.0,70,0.00,,,0.00,,2013-01-30 17:13:00,
2013-01-30 12:23:00,77.0,67.0,30.04,SSE,157,7.0,17.0,72,0.00,,,0.00,,2013-01-30 17:23:00,
2013-01-30 12:33:00,78.0,68.0,30.03,SSW,205,7.0,16.0,72,0.00,,,0.00,,2013-01-30 17:33:00,
2013-01-30 12:43:00,78.0,68.0,30.03,SSW,205,7.0,16.0,72,0.00,,,0.00,,2013-01-30 17:43:00,
2013-01-30 12:53:00,77.0,67.0,30.02,SE,127,7.0,21.0,72,0.00,,,0.00,,2013-01-30 17:53:00,
2013-01-30 13:03:00,78.0,69.0,30.01,SE,132,8.0,18.0,73,0.00,,,0.00,,2013-01-30 18:03:00,
2013-01-30 13:13:00,78.0,69.0,30.01,SE,132,8.0,18.0,73,0.00,,,0.00,,2013-01-30 18:13:00,
2013-01-30 13:23:00,79.0,69.0,30.00,East,94,6.0,16.0,71,0.00,,,0.00,,2013-01-30 18:23:00,
2013-01-30 13:33:00,78.0,68.0,29.99,SSW,201,8.0,15.0,71,0.00,,,0.00,,2013-01-30 18:33:00,
2013-01-30 13:43:00,78.0,68.0,29.99,SSW,201,8.0,15.0,71,0.00,,,0.00,,2013-01-30 18:43:00,
2013-01-30 13:52:00,79.0,69.0,29.98,SSW,212,8.0,16.0,72,0.00,,,0.00,,2013-01-30 18:52:00,
2013-01-30 14:03:00,79.0,69.0,29.98,South,179,9.0,18.0,71,0.00,,,0.00,,2013-01-30 19:03:00,
2013-01-30 14:13:00,79.0,69.0,29.98,South,179,9.0,18.0,71,0.00,,,0.00,,2013-01-30 19:13:00,
2013-01-30 14:22:00,78.0,68.0,29.98,South,180,7.0,19.0,72,0.00,,,0.00,,2013-01-30 19:22:00,
2013-01-30 14:33:00,78.0,69.0,29.97,SSE,158,6.0,13.0,74,0.00,,,0.00,,2013-01-30 19:33:00,
2013-01-30 14:43:00,78.0,69.0,29.97,SSE,158,6.0,13.0,74,0.00,,,0.00,,2013-01-30 19:43:00,
2013-01-30 14:53:00,78.0,69.0,29.98,South,188,4.0,13.0,74,0.00,,,0.00,,2013-01-30 19:53:00,
2013-01-30 15:03:00,78.0,69.0,29.99,SSW,192,6.0,14.0,73,0.00,,,0.00,,2013-01-30 20:03:00,
2013-01-30 15:12:00,78.0,69.0,29.99,SSW,192,6.0,14.0,73,0.00,,,0.00,,2013-01-30 20:12:00,
2013-01-30 15:22:00,78.0,69.0,29.99,South,182,6.0,12.0,74,0.00,,,0.00,,2013-01-30 20:22:00,
2013-01-30 15:33:00,79.0,69.0,29.99,SSW,211,4.0,11.0,72,0.00,,,0.00,,2013-01-30 20:33:00,
2013-01-30 15:42:00,79.0,69.0,29.99,SSW,211,4.0,11.0,72,0.00,,,0.00,,2013-01-30 20:42:00,
2013-01-30 15:53:00,80.0,70.0,29.99,South,180,4.0,10.0,72,0.00,,,0.00,,2013-01-30 20:53:00,
2013-01-30 16:03:00,79.0,69.0,30.00,South,182,5.0,11.0,71,0.00,,,0.00,,2013-01-30 21:03:00,
2013-01-30 16:12:00,79.0,69.0,30.00,South,182,5.0,11.0,71,0.00,,,0.00,,2013-01-30 21:12:00,
2013-01-30 16:23:00,79.0,68.0,30.01,SSE,165,7.0,12.0,70,0.00,,,0.00,,2013-01-30 21:23:00,
2013-01-30 16:32:00,79.0,68.0,30.01,SW,223,3.0,10.0,70,0.00,,,0.00,,2013-01-30 21:32:00,
2013-01-30 16:42:00,79.0,68.0,30.01,SW,223,3.0,10.0,70,0.00,,,0.00,,2013-01-30 21:42:00,
2013-01-30 16:53:00,78.0,68.0,30.01,SW,218,4.0,10.0,71,0.00,,,0.00,,2013-01-30 21:53:00,
2013-01-30 17:03:00,79.0,68.0,30.01,South,175,4.0,7.0,69,0.00,,,0.00,,2013-01-30 22:03:00,
2013-01-30 17:12:00,79.0,68.0,30.01,South,175,4.0,7.0,69,0.00,,,0.00,,2013-01-30 22:12:00,
2013-01-30 17:22:00,79.0,68.0,29.99,SSW,195,5.0,11.0,69,0.00,,,0.00,,2013-01-30 22:22:00,
2013-01-30 17:32:00,79.0,68.0,29.99,South,184,6.0,10.0,70,0.00,,,0.00,,2013-01-30 22:32:00,
2013-01-30 17:42:00,79.0,68.0,29.99,South,184,6.0,10.0,70,0.00,,,0.00,,2013-01-30 22:42:00,
2013-01-30 17:53:00,78.0,68.0,29.99,SSW,198,5.0,11.0,72,0.00,,,0.00,,2013-01-30 22:53:00,
2013-01-30 18:02:00,77.0,68.0,29.98,SSW,194,2.0,7.0,74,0.00,,,0.00,,2013-01-30 23:02:00,
2013-01-30 18:12:00,77.0,68.0,29.98,SSW,194,2.0,7.0,74,0.00,,,0.00,,2013-01-30 23:12:00,
2013-01-30 18:22:00,76.0,67.0,29.98,South,175,3.0,9.0,75,0.00,,,0.00,,2013-01-30 23:22:00,
2013-01-30 18:33:00,76.0,68.0,29.98,SSW,198,3.0,7.0,76,0.00,,,0.00,,2013-01-30 23:33:00,
2013-01-30 18:42:00,76.0,68.0,29.98,SSW,198,3.0,7.0,76,0.00,,,0.00,,2013-01-30 23:42:00,
2013-01-30 18:52:00,75.0,67.0,29.99,South,186,1.0,5.0,77,0.00,,,0.00,,2013-01-30 23:52:00,
2013-01-30 19:02:00,75.0,67.0,29.99,SSE,165,1.0,4.0,77,0.00,,,0.00,,2013-01-31 00:02:00,
2013-01-30 19:11:00,75.0,67.0,29.99,SSE,165,1.0,4.0,77,0.00,,,0.00,,2013-01-31 00:11:00,
2013-01-30 19:22:00,74.0,67.0,29.99,SSE,164,0.0,3.0,79,0.00,,,0.00,,2013-01-31 00:22:00,
2013-01-30 19:32:00,73.0,67.0,29.99,SSE,168,1.0,3.0,81,0.00,,,0.00,,2013-01-31 00:32:00,
2013-01-30 19:42:00,73.0,67.0,29.99,SSE,168,1.0,3.0,81,0.00,,,0.00,,2013-01-31 00:42:00,
2013-01-30 19:53:00,73.0,68.0,29.99,SE,139,2.0,4.0,83,0.00,,,0.00,,2013-01-31 00:53:00,
2013-01-30 20:02:00,73.0,68.0,29.99,South,169,1.0,4.0,85,0.00,,,0.00,,2013-01-31 01:02:00,
2013-01-30 20:12:00,73.0,68.0,29.99,South,169,1.0,4.0,85,0.00,,,0.00,,2013-01-31 01:12:00,
2013-01-30 20:22:00,72.0,68.0,29.99,SSE,158,2.0,4.0,86,0.00,,,0.00,,2013-01-31 01:22:00,
2013-01-30 20:32:00,72.0,68.0,29.99,South,169,2.0,4.0,86,0.00,,,0.00,,2013-01-31 01:32:00,
2013-01-30 20:42:00,72.0,68.0,29.99,South,169,2.0,4.0,86,0.00,,,0.00,,2013-01-31 01:42:00,
2013-01-30 20:53:00,72.0,68.0,29.99,South,170,3.0,6.0,87,0.00,,,0.00,,2013-01-31 01:53:00,
2013-01-30 21:01:00,72.0,68.0,30.00,SSE,168,1.0,4.0,88,0.00,,,0.00,,2013-01-31 02:01:00,
2013-01-30 21:12:00,72.0,68.0,30.00,SSE,168,1.0,4.0,88,0.00,,,0.00,,2013-01-31 02:12:00,
2013-01-30 21:22:00,72.0,69.0,30.00,South,179,2.0,6.0,89,0.00,,,0.00,,2013-01-31 02:22:00,
2013-01-30 21:32:00,71.0,68.0,30.00,SSW,211,1.0,4.0,89,0.00,,,0.00,,2013-01-31 02:32:00,
2013-01-30 21:42:00,71.0,68.0,30.00,SSW,211,1.0,4.0,89,0.00,,,0.00,,2013-01-31 02:42:00,
2013-01-30 21:52:00,71.0,68.0,30.00,SSW,211,1.0,4.0,89,0.00,,,0.00,,2013-01-31 02:52:00,
2013-01-30 22:03:00,71.0,68.0,30.00,SSW,193,1.0,4.0,91,0.00,,,0.00,,2013-01-31 03:03:00,
2013-01-30 22:11:00,71.0,68.0,30.00,SSW,193,1.0,4.0,91,0.00,,,0.00,,2013-01-31 03:11:00,
2013-01-30 22:22:00,71.0,68.0,30.00,South,175,2.0,5.0,91,0.00,,,0.00,,2013-01-31 03:22:00,
2013-01-30 22:32:00,71.0,68.0,30.00,South,170,3.0,5.0,91,0.00,,,0.00,,2013-01-31 03:32:00,
2013-01-30 22:42:00,71.0,68.0,30.00,South,170,3.0,5.0,91,0.00,,,0.00,,2013-01-31 03:42:00,
2013-01-30 22:52:00,71.0,68.0,29.99,South,174,3.0,7.0,91,0.00,,,0.00,,2013-01-31 03:52:00,
2013-01-30 23:02:00,71.0,69.0,29.99,South,170,3.0,7.0,92,0.00,,,0.00,,2013-01-31 04:02:00,
2013-01-30 23:11:00,71.0,69.0,29.99,South,170,3.0,7.0,92,0.00,,,0.00,,2013-01-31 04:11:00,
2013-01-30 23:22:00,71.0,69.0,29.99,South,186,3.0,7.0,92,0.00,,,0.00,,2013-01-31 04:22:00,
2013-01-30 23:32:00,71.0,69.0,29.99,South,180,3.0,7.0,92,0.00,,,0.00,,2013-01-31 04:32:00,
2013-01-30 23:42:00,71.0,69.0,29.99,South,180,3.0,7.0,92,0.00,,,0.00,,2013-01-31 04:42:00,
2013-01-30 23:52:00,71.0,69.0,30.00,SSW,209,2.0,7.0,92,0.00,,,0.00,,2013-01-31 04:52:00,